Location: McFarlands Corners
(41.4117°N, 81.3382°W)
Time: 05:44:22
(UTC+00:00)

A-11 Canister half - Pass Details

Date: 20 February 2026
Orbit: 1524 x 1683 km, 47.3° (Epoch: 14 March)

Event Time Altitude Azimuth Distance (km) Brightness Sun altitude
Rises 02:46:45 0° 296° (WNW) 4,678 12.4 -41.6°
Reaches altitude 10° 02:49:47 10° 296° (WNW) 3,693 11.6 -42.1°
Enters shadow 02:56:41 56° 288° (WNW) 1,774 9.3 -43.2°
